FDX1140 KOAK-CYYC

Flight info

Callsign FDX1140
Flight time 2h 8m
Altitude 37000
Route OAK6 OAK DCT DEDHD DCT SUNBE DCT LKV J3 GEG DCT YXC DCT SIGPA IGVEP7
Aircraft A346/H-SDE2E3FGHIJ3J4J5M1RWXY/LB1D1

Departure

Time 2026-04-28 14:08
Airport San Francisco Bay Oakland International Airport (KOAK)

Arrival

Time 2026-04-28 16:16
Airport Calgary International Airport (CYYC)
Time Latitude Longitude Altitude Speed Heading
2026-04-28 13:46 37.71666 -122.22046 21 ft 0 kts 309°
2026-04-28 13:49 37.71664 -122.22043 21 ft 2 kts 308°
2026-04-28 13:49 37.71656 -122.22025 21 ft 2 kts 286°
2026-04-28 13:49 37.71654 -122.22006 21 ft 2 kts 267°
2026-04-28 13:49 37.71657 -122.21987 21 ft 2 kts 250°
2026-04-28 13:50 37.71664 -122.21970 21 ft 2 kts 232°
2026-04-28 13:50 37.71674 -122.21957 21 ft 2 kts 222°
2026-04-28 13:50 37.71685 -122.21944 21 ft 2 kts 224°
2026-04-28 13:50 37.71693 -122.21934 21 ft 0 kts 225°
2026-04-28 13:51 37.71694 -122.21933 21 ft 0 kts 225°
2026-04-28 13:59 37.71686 -122.21943 21 ft 3 kts 225°
2026-04-28 13:59 37.71662 -122.21974 21 ft 6 kts 225°
2026-04-28 13:59 37.71619 -122.22025 21 ft 9 kts 215°
2026-04-28 14:00 37.71552 -122.22019 21 ft 11 kts 141°
2026-04-28 14:00 37.71481 -122.21978 21 ft 12 kts 199°
2026-04-28 14:00 37.71412 -122.22053 21 ft 13 kts 229°
2026-04-28 14:00 37.71349 -122.22155 21 ft 15 kts 243°
2026-04-28 14:01 37.71337 -122.22289 21 ft 15 kts 258°
2026-04-28 14:01 37.71278 -122.22412 21 ft 16 kts 231°
2026-04-28 14:01 37.71203 -122.22521 21 ft 12 kts 226°
2026-04-28 14:01 37.71130 -122.22514 21 ft 12 kts 139°
2026-04-28 14:02 37.71066 -122.22423 21 ft 14 kts 130°
2026-04-28 14:02 37.70995 -122.22319 21 ft 16 kts 130°
2026-04-28 14:02 37.70918 -122.22205 21 ft 17 kts 130°
2026-04-28 14:02 37.70837 -122.22082 21 ft 18 kts 130°
2026-04-28 14:03 37.70750 -122.21952 21 ft 19 kts 130°
2026-04-28 14:03 37.70659 -122.21815 21 ft 20 kts 130°
2026-04-28 14:03 37.70562 -122.21671 21 ft 21 kts 130°
2026-04-28 14:03 37.70472 -122.21535 21 ft 17 kts 130°
2026-04-28 14:04 37.70396 -122.21423 21 ft 15 kts 139°
2026-04-28 14:04 37.70313 -122.21371 21 ft 9 kts 160°
2026-04-28 14:04 37.70300 -122.21365 21 ft 0 kts 161°
2026-04-28 14:06 37.70289 -122.21360 21 ft 4 kts 163°
2026-04-28 14:06 37.70226 -122.21364 21 ft 11 kts 199°
2026-04-28 14:06 37.70180 -122.21439 21 ft 12 kts 275°
2026-04-28 14:06 37.70226 -122.21536 21 ft 10 kts 310°
2026-04-28 14:07 37.70235 -122.21551 21 ft 1 kts 310°
2026-04-28 14:07 37.70248 -122.21571 21 ft 9 kts 310°
2026-04-28 14:07 37.70427 -122.21838 21 ft 75 kts 310°
2026-04-28 14:07 37.70916 -122.22574 22 ft 137 kts 309°
2026-04-28 14:08 37.71639 -122.23646 88 ft 177 kts 310°
2026-04-28 14:08 37.72420 -122.24885 622 ft 178 kts 304°
2026-04-28 14:08 37.73091 -122.26107 1474 ft 163 kts 304°
2026-04-28 14:08 37.73737 -122.27326 1759 ft 181 kts 304°
2026-04-28 14:09 37.74484 -122.28814 1675 ft 217 kts 301°
2026-04-28 14:09 37.75357 -122.30348 2398 ft 217 kts 306°
2026-04-28 14:09 37.76443 -122.31779 2793 ft 236 kts 332°
2026-04-28 14:09 37.78113 -122.32175 3202 ft 256 kts
2026-04-28 14:10 37.79839 -122.31499 3928 ft 263 kts 22°
2026-04-28 14:10 37.81577 -122.30639 4600 ft 271 kts 21°
2026-04-28 14:10 37.83374 -122.29800 5372 ft 276 kts 20°
2026-04-28 14:10 37.85194 -122.29024 6206 ft 278 kts 19°
2026-04-28 14:11 37.87057 -122.28279 7051 ft 280 kts 18°
2026-04-28 14:11 37.88935 -122.27560 7892 ft 282 kts 18°
2026-04-28 14:11 37.90813 -122.26857 8725 ft 284 kts 18°
2026-04-28 14:11 37.92694 -122.26162 9549 ft 286 kts 18°
2026-04-28 14:12 37.94601 -122.25462 10344 ft 288 kts 18°
2026-04-28 14:12 37.96563 -122.24743 10846 ft 302 kts 18°
2026-04-28 14:12 37.98667 -122.23974 11210 ft 320 kts 17°
2026-04-28 14:12 38.00890 -122.23165 11556 ft 338 kts 17°
2026-04-28 14:13 38.03248 -122.22308 11885 ft 356 kts 17°
2026-04-28 14:13 38.05683 -122.21426 12257 ft 371 kts 17°
2026-04-28 14:13 38.08199 -122.20514 12930 ft 377 kts 17°
2026-04-28 14:13 38.10734 -122.19595 13716 ft 379 kts 17°
2026-04-28 14:14 38.13273 -122.18676 14449 ft 383 kts 17°
2026-04-28 14:14 38.15846 -122.17742 15153 ft 386 kts 17°
2026-04-28 14:14 38.18447 -122.16795 15845 ft 390 kts 18°
2026-04-28 14:14 38.21033 -122.15850 16517 ft 393 kts 18°
2026-04-28 14:15 38.23686 -122.14879 17185 ft 396 kts 18°
2026-04-28 14:15 38.26308 -122.13917 17823 ft 399 kts 18°
2026-04-28 14:15 38.28973 -122.12940 18446 ft 403 kts 18°
2026-04-28 14:15 38.31683 -122.11944 19057 ft 406 kts 18°
2026-04-28 14:16 38.34370 -122.10830 19652 ft 408 kts 21°
2026-04-28 14:16 38.37024 -122.09559 20238 ft 411 kts 23°
2026-04-28 14:16 38.39691 -122.08241 20814 ft 414 kts 23°
2026-04-28 14:16 38.42374 -122.06908 21372 ft 417 kts 23°
2026-04-28 14:17 38.45048 -122.05580 21914 ft 420 kts 23°
2026-04-28 14:17 38.47797 -122.04215 22446 ft 424 kts 23°
2026-04-28 14:17 38.50539 -122.02855 22968 ft 427 kts 23°
2026-04-28 14:17 38.53287 -122.01491 23472 ft 430 kts 23°
2026-04-28 14:18 38.56092 -122.00098 23965 ft 433 kts 23°
2026-04-28 14:18 38.58913 -121.98696 24454 ft 436 kts 23°
2026-04-28 14:18 38.61729 -121.97297 24930 ft 439 kts 23°
2026-04-28 14:18 38.64552 -121.95893 25398 ft 442 kts 24°
2026-04-28 14:19 38.67418 -121.94466 25861 ft 444 kts 24°
2026-04-28 14:19 38.70328 -121.93016 26317 ft 447 kts 24°
2026-04-28 14:19 38.73200 -121.91585 26747 ft 450 kts 24°
2026-04-28 14:19 38.76118 -121.90128 27161 ft 453 kts 24°
2026-04-28 14:20 38.79095 -121.88641 27570 ft 456 kts 24°
2026-04-28 14:20 38.82030 -121.87174 27978 ft 458 kts 24°
2026-04-28 14:20 38.85017 -121.85679 28396 ft 461 kts 24°
2026-04-28 14:20 38.87962 -121.84205 28940 ft 459 kts 24°
2026-04-28 14:21 38.90944 -121.82710 29522 ft 457 kts 24°
2026-04-28 14:21 38.93863 -121.81244 30002 ft 457 kts 24°
2026-04-28 14:21 38.96813 -121.79759 30403 ft 459 kts 24°
2026-04-28 14:21 38.99795 -121.78256 30793 ft 461 kts 23°
2026-04-28 14:22 39.02794 -121.76745 31207 ft 462 kts 23°
2026-04-28 14:22 39.05806 -121.75227 31628 ft 463 kts 23°
2026-04-28 14:22 39.08786 -121.73725 32075 ft 463 kts 23°
2026-04-28 14:22 39.11746 -121.72235 32552 ft 462 kts 23°
2026-04-28 14:23 39.14743 -121.70732 33040 ft 460 kts 23°
2026-04-28 14:23 39.17726 -121.69233 33513 ft 459 kts 23°
2026-04-28 14:23 39.20679 -121.67744 33962 ft 457 kts 23°
2026-04-28 14:23 39.23627 -121.66256 34392 ft 456 kts 23°
2026-04-28 14:24 39.26572 -121.64765 34803 ft 455 kts 23°
2026-04-28 14:24 39.29477 -121.63292 35185 ft 454 kts 23°
2026-04-28 14:24 39.32418 -121.61799 35544 ft 454 kts 23°
2026-04-28 14:24 39.35362 -121.60303 35846 ft 455 kts 23°
2026-04-28 14:25 39.38302 -121.58807 36106 ft 456 kts 23°
2026-04-28 14:25 39.41272 -121.57295 36341 ft 457 kts 23°
2026-04-28 14:25 39.44222 -121.55791 36558 ft 459 kts 23°
2026-04-28 14:25 39.47181 -121.54282 36761 ft 460 kts 23°
2026-04-28 14:26 39.50148 -121.52766 36957 ft 461 kts 23°
2026-04-28 14:26 39.53151 -121.51233 37135 ft 463 kts 23°
2026-04-28 14:26 39.59128 -121.48174 37177 ft 464 kts 23°
2026-04-28 14:27 39.65137 -121.45093 37182 ft 464 kts 23°
2026-04-28 14:27 39.71119 -121.42020 37184 ft 464 kts 23°
2026-04-28 14:28 39.77115 -121.38936 37184 ft 464 kts 23°
2026-04-28 14:28 39.83093 -121.35854 37184 ft 464 kts 23°
2026-04-28 14:29 39.89051 -121.32760 37185 ft 464 kts 24°
2026-04-28 14:29 39.95044 -121.29635 37184 ft 464 kts 24°
2026-04-28 14:30 40.00938 -121.26569 37189 ft 464 kts 24°
2026-04-28 14:30 40.06950 -121.23444 37197 ft 464 kts 24°
2026-04-28 14:31 40.12824 -121.20392 37207 ft 464 kts 24°
2026-04-28 14:31 40.18792 -121.17298 37217 ft 463 kts 24°
2026-04-28 14:32 40.24787 -121.14176 37225 ft 463 kts 24°
2026-04-28 14:32 40.30750 -121.11058 37228 ft 462 kts 24°
2026-04-28 14:33 40.36685 -121.07948 37230 ft 460 kts 24°
2026-04-28 14:33 40.42585 -121.04851 37230 ft 459 kts 24°
2026-04-28 14:34 40.51432 -121.00195 37230 ft 457 kts 24°
2026-04-28 14:35 40.57288 -120.97105 37230 ft 455 kts 25°
2026-04-28 14:35 40.63162 -120.94000 37229 ft 456 kts 25°
2026-04-28 14:36 40.69015 -120.90899 37230 ft 454 kts 25°
2026-04-28 14:36 40.74887 -120.87783 37230 ft 455 kts 25°
2026-04-28 14:37 40.80729 -120.84679 37229 ft 455 kts 25°
2026-04-28 14:37 40.86563 -120.81574 37229 ft 455 kts 24°
2026-04-28 14:38 40.92419 -120.78450 37230 ft 455 kts 24°
2026-04-28 14:38 40.98413 -120.75675 37230 ft 456 kts 19°
2026-04-28 14:39 41.04552 -120.73701 37229 ft 457 kts 12°
2026-04-28 14:39 41.10829 -120.72502 37229 ft 459 kts
2026-04-28 14:40 41.17231 -120.71533 37230 ft 462 kts
2026-04-28 14:40 41.23663 -120.70562 37230 ft 462 kts
2026-04-28 14:41 41.30046 -120.69580 37229 ft 462 kts
2026-04-28 14:41 41.36467 -120.68584 37230 ft 462 kts
2026-04-28 14:42 41.42838 -120.67590 37230 ft 462 kts
2026-04-28 14:42 41.49247 -120.66588 37230 ft 462 kts
2026-04-28 14:43 41.55595 -120.65594 37230 ft 462 kts
2026-04-28 14:43 41.61951 -120.64596 37230 ft 462 kts
2026-04-28 14:44 41.68345 -120.63590 37229 ft 462 kts
2026-04-28 14:44 41.74708 -120.62588 37230 ft 462 kts
2026-04-28 14:45 41.81081 -120.61581 37230 ft 462 kts
2026-04-28 14:45 41.87449 -120.60573 37230 ft 462 kts
2026-04-28 14:46 41.93824 -120.59563 37230 ft 462 kts
2026-04-28 14:46 42.00171 -120.58554 37230 ft 462 kts
2026-04-28 14:47 42.06524 -120.57543 37230 ft 462 kts
2026-04-28 14:47 42.12881 -120.56530 37230 ft 462 kts
2026-04-28 14:48 42.19266 -120.55514 37230 ft 462 kts
2026-04-28 14:48 42.25634 -120.54497 37230 ft 462 kts
2026-04-28 14:49 42.31994 -120.53477 37230 ft 462 kts
2026-04-28 14:49 42.38341 -120.52457 37230 ft 462 kts
2026-04-28 14:50 42.44706 -120.51431 37230 ft 462 kts
2026-04-28 14:50 42.51020 -120.50008 37230 ft 462 kts 12°
2026-04-28 14:51 42.57261 -120.47889 37230 ft 462 kts 14°
2026-04-28 14:51 42.63456 -120.45665 37230 ft 462 kts 14°
2026-04-28 14:52 42.69634 -120.43445 37230 ft 462 kts 14°
2026-04-28 14:52 42.75847 -120.41213 37230 ft 462 kts 14°
2026-04-28 14:53 42.82053 -120.38983 37230 ft 462 kts 14°
2026-04-28 14:53 42.88226 -120.36761 37230 ft 462 kts 14°
2026-04-28 14:54 42.94426 -120.34515 37230 ft 460 kts 14°
2026-04-28 14:54 43.00577 -120.32251 37229 ft 460 kts 13°
2026-04-28 14:55 43.06779 -120.29986 37229 ft 463 kts 12°
2026-04-28 14:55 43.12980 -120.27743 37230 ft 463 kts 12°
2026-04-28 14:56 43.19221 -120.25486 37230 ft 463 kts 12°
2026-04-28 14:56 43.25422 -120.23232 37229 ft 463 kts 12°
2026-04-28 14:57 43.31647 -120.20961 37225 ft 463 kts 12°
2026-04-28 14:57 43.37821 -120.18702 37218 ft 463 kts 12°
2026-04-28 14:58 43.44046 -120.16419 37212 ft 463 kts 12°
2026-04-28 14:58 43.50242 -120.14143 37210 ft 463 kts 12°
2026-04-28 14:59 43.56431 -120.11863 37210 ft 463 kts 12°
2026-04-28 14:59 43.62649 -120.09569 37211 ft 463 kts 12°
2026-04-28 15:00 43.68862 -120.07270 37213 ft 463 kts 12°
2026-04-28 15:00 43.75083 -120.04964 37215 ft 463 kts 12°
2026-04-28 15:01 43.81259 -120.02670 37217 ft 463 kts 12°
2026-04-28 15:01 43.87497 -120.00347 37218 ft 463 kts 12°
2026-04-28 15:02 43.93691 -119.98037 37220 ft 463 kts 12°
2026-04-28 15:02 43.99874 -119.95725 37221 ft 463 kts 12°
2026-04-28 15:03 44.06097 -119.93394 37221 ft 463 kts 12°
2026-04-28 15:03 44.12314 -119.91061 37221 ft 463 kts 12°
2026-04-28 15:04 44.18509 -119.88739 37219 ft 463 kts 12°
2026-04-28 15:04 44.24695 -119.86410 37218 ft 463 kts 12°
2026-04-28 15:05 44.30904 -119.84064 37218 ft 463 kts 12°
2026-04-28 15:05 44.37091 -119.81722 37217 ft 463 kts 12°
2026-04-28 15:06 44.43317 -119.79359 37218 ft 463 kts 12°
2026-04-28 15:06 44.49503 -119.77006 37219 ft 463 kts 12°
2026-04-28 15:07 44.55710 -119.74639 37218 ft 463 kts 12°
2026-04-28 15:07 44.61874 -119.72199 37213 ft 464 kts 15°
2026-04-28 15:08 44.67935 -119.68999 37207 ft 466 kts 20°
2026-04-28 15:08 44.73798 -119.65132 37203 ft 467 kts 22°
2026-04-28 15:09 44.79631 -119.61163 37200 ft 467 kts 22°
2026-04-28 15:09 44.85484 -119.57180 37197 ft 467 kts 22°
2026-04-28 15:10 44.91348 -119.53188 37195 ft 467 kts 22°
2026-04-28 15:10 44.97257 -119.49159 37194 ft 467 kts 22°
2026-04-28 15:11 45.03099 -119.45163 37194 ft 468 kts 22°
2026-04-28 15:11 45.08963 -119.41145 37194 ft 469 kts 21°
2026-04-28 15:12 45.14879 -119.37097 37195 ft 470 kts 21°
2026-04-28 15:12 45.20742 -119.33075 37194 ft 471 kts 22°
2026-04-28 15:13 45.26660 -119.28973 37194 ft 471 kts 22°
2026-04-28 15:13 45.32575 -119.24873 37195 ft 471 kts 22°
2026-04-28 15:14 45.38526 -119.20747 37195 ft 471 kts 22°
2026-04-28 15:14 45.44399 -119.16667 37195 ft 471 kts 22°
2026-04-28 15:15 45.50343 -119.12531 37195 ft 471 kts 22°
2026-04-28 15:15 45.56268 -119.08398 37195 ft 471 kts 22°
2026-04-28 15:16 45.62140 -119.04292 37195 ft 471 kts 22°
2026-04-28 15:16 45.67994 -119.00190 37195 ft 470 kts 22°
2026-04-28 15:17 45.73876 -118.96057 37195 ft 469 kts 22°
2026-04-28 15:17 45.79751 -118.91920 37195 ft 468 kts 22°
2026-04-28 15:18 45.85572 -118.87812 37195 ft 467 kts 22°
2026-04-28 15:18 45.91406 -118.83684 37195 ft 466 kts 22°
2026-04-28 15:19 45.97187 -118.79584 37194 ft 465 kts 22°
2026-04-28 15:19 46.02966 -118.75478 37190 ft 465 kts 22°
2026-04-28 15:20 46.08781 -118.71335 37185 ft 465 kts 22°
2026-04-28 15:20 46.14601 -118.67191 37182 ft 465 kts 22°
2026-04-28 15:21 46.20377 -118.63071 37181 ft 465 kts 22°
2026-04-28 15:21 46.26202 -118.58898 37181 ft 465 kts 22°
2026-04-28 15:22 46.32006 -118.54726 37183 ft 465 kts 22°
2026-04-28 15:22 46.37811 -118.50542 37184 ft 465 kts 22°
2026-04-28 15:23 46.43611 -118.46349 37184 ft 465 kts 22°
2026-04-28 15:23 46.49397 -118.42158 37184 ft 465 kts 22°
2026-04-28 15:24 46.55210 -118.37938 37184 ft 465 kts 22°
2026-04-28 15:24 46.60987 -118.33728 37183 ft 465 kts 23°
2026-04-28 15:25 46.66751 -118.29491 37184 ft 466 kts 23°
2026-04-28 15:25 46.72568 -118.25221 37184 ft 466 kts 23°
2026-04-28 15:26 46.78343 -118.20980 37184 ft 466 kts 23°
2026-04-28 15:26 46.84136 -118.16722 37184 ft 466 kts 23°
2026-04-28 15:27 46.89904 -118.12471 37184 ft 466 kts 22°
2026-04-28 15:27 46.95689 -118.08192 37178 ft 465 kts 22°
2026-04-28 15:28 47.01506 -118.03880 37163 ft 464 kts 21°
2026-04-28 15:28 47.07266 -117.99609 37144 ft 463 kts 21°
2026-04-28 15:29 47.13063 -117.95309 37131 ft 464 kts 21°
2026-04-28 15:29 47.18831 -117.91029 37125 ft 464 kts 21°
2026-04-28 15:30 47.24620 -117.86708 37122 ft 464 kts 21°
2026-04-28 15:30 47.30396 -117.82383 37134 ft 465 kts 21°
2026-04-28 15:31 47.36157 -117.78054 37142 ft 464 kts 21°
2026-04-28 15:31 47.41951 -117.73691 37146 ft 464 kts 21°
2026-04-28 15:32 47.47725 -117.69331 37147 ft 464 kts 21°
2026-04-28 15:32 47.53547 -117.64925 37147 ft 464 kts 21°
2026-04-28 15:33 47.59343 -117.60558 37147 ft 464 kts 21°
2026-04-28 15:33 47.65149 -117.56258 37147 ft 464 kts 21°
2026-04-28 15:34 47.70940 -117.51962 37150 ft 464 kts 21°
2026-04-28 15:34 47.76727 -117.47652 37155 ft 464 kts 21°
2026-04-28 15:35 47.82566 -117.43289 37160 ft 464 kts 21°
2026-04-28 15:35 47.91313 -117.36732 37164 ft 464 kts 21°
2026-04-28 15:36 47.97160 -117.32323 37163 ft 464 kts 21°
2026-04-28 15:36 48.02958 -117.27922 37164 ft 464 kts 21°
2026-04-28 15:37 48.08766 -117.23520 37164 ft 464 kts 21°
2026-04-28 15:37 48.14547 -117.19145 37166 ft 464 kts 21°
2026-04-28 15:38 48.20387 -117.14722 37165 ft 464 kts 21°
2026-04-28 15:38 48.26182 -117.10316 37165 ft 464 kts 21°
2026-04-28 15:39 48.32006 -117.05868 37165 ft 465 kts 21°
2026-04-28 15:39 48.37785 -117.01445 37167 ft 466 kts 21°
2026-04-28 15:40 48.43620 -116.96967 37169 ft 466 kts 21°
2026-04-28 15:40 48.49393 -116.92525 37171 ft 467 kts 21°
2026-04-28 15:41 48.55193 -116.88049 37172 ft 468 kts 21°
2026-04-28 15:41 48.61036 -116.83531 37174 ft 469 kts 21°
2026-04-28 15:42 48.66835 -116.79034 37174 ft 469 kts 21°
2026-04-28 15:42 48.72635 -116.74524 37173 ft 468 kts 21°
2026-04-28 15:43 48.78413 -116.70021 37172 ft 468 kts 21°
2026-04-28 15:43 48.84275 -116.65437 37171 ft 468 kts 21°
2026-04-28 15:44 48.90062 -116.60902 37169 ft 468 kts 21°
2026-04-28 15:44 48.95852 -116.56353 37164 ft 469 kts 21°
2026-04-28 15:45 49.01671 -116.51759 37156 ft 469 kts 20°
2026-04-28 15:45 49.07444 -116.47187 37147 ft 471 kts 19°
2026-04-28 15:46 49.13269 -116.42580 37144 ft 474 kts 18°
2026-04-28 15:46 49.19176 -116.37919 37142 ft 474 kts 18°
2026-04-28 15:47 49.25030 -116.33265 37138 ft 474 kts 19°
2026-04-28 15:47 49.30872 -116.28573 36911 ft 475 kts 19°
2026-04-28 15:48 49.33766 -116.26248 36512 ft 473 kts 19°
2026-04-28 15:48 49.36687 -116.23903 35996 ft 471 kts 19°
2026-04-28 15:48 49.39614 -116.21556 35417 ft 470 kts 19°
2026-04-28 15:48 49.42487 -116.19253 34836 ft 470 kts 19°
2026-04-28 15:49 49.45421 -116.16896 34218 ft 471 kts 19°
2026-04-28 15:49 49.48329 -116.14524 33631 ft 472 kts 20°
2026-04-28 15:49 49.51165 -116.11950 33028 ft 477 kts 24°
2026-04-28 15:49 49.53927 -116.09120 32389 ft 482 kts 27°
2026-04-28 15:50 49.56647 -116.05977 31753 ft 486 kts 31°
2026-04-28 15:50 49.59238 -116.02605 31138 ft 490 kts 34°
2026-04-28 15:50 49.61751 -115.98931 30520 ft 494 kts 38°
2026-04-28 15:50 49.64158 -115.95174 29901 ft 495 kts 39°
2026-04-28 15:51 49.66532 -115.91405 29269 ft 495 kts 39°
2026-04-28 15:51 49.68945 -115.87563 28603 ft 496 kts 39°
2026-04-28 15:51 49.71350 -115.83732 27956 ft 496 kts 39°
2026-04-28 15:51 49.73748 -115.79916 27470 ft 491 kts 39°
2026-04-28 15:52 49.76111 -115.76153 26988 ft 487 kts 39°
2026-04-28 15:52 49.78465 -115.72402 26543 ft 482 kts 40°
2026-04-28 15:52 49.80776 -115.68720 26116 ft 477 kts 40°
2026-04-28 15:52 49.83093 -115.65022 25699 ft 472 kts 40°
2026-04-28 15:53 49.85371 -115.61381 25286 ft 468 kts 40°
2026-04-28 15:53 49.87633 -115.57763 24876 ft 463 kts 40°
2026-04-28 15:53 49.89847 -115.54217 24472 ft 459 kts 40°
2026-04-28 15:53 49.92061 -115.50666 24075 ft 454 kts 40°
2026-04-28 15:54 49.94264 -115.47130 23673 ft 450 kts 40°
2026-04-28 15:54 49.96430 -115.43646 23271 ft 446 kts 40°
2026-04-28 15:54 49.98590 -115.40170 22867 ft 443 kts 40°
2026-04-28 15:54 50.00737 -115.36706 22466 ft 439 kts 40°
2026-04-28 15:55 50.02859 -115.33279 22067 ft 435 kts 41°
2026-04-28 15:55 50.04944 -115.29894 21671 ft 432 kts 41°
2026-04-28 15:55 50.07030 -115.26503 21271 ft 429 kts 41°
2026-04-28 15:55 50.09080 -115.23199 20875 ft 425 kts 40°
2026-04-28 15:56 50.11259 -115.20115 20476 ft 418 kts 35°
2026-04-28 15:56 50.13583 -115.17402 20094 ft 411 kts 29°
2026-04-28 15:56 50.15971 -115.15099 19755 ft 404 kts 26°
2026-04-28 15:56 50.18443 -115.12897 19415 ft 399 kts 25°
2026-04-28 15:57 50.20846 -115.10783 19088 ft 394 kts 25°
2026-04-28 15:57 50.23237 -115.08675 18757 ft 389 kts 26°
2026-04-28 15:57 50.25581 -115.06599 18425 ft 385 kts 26°
2026-04-28 15:57 50.27910 -115.04530 18081 ft 381 kts 27°
2026-04-28 15:58 50.30239 -115.02454 17724 ft 377 kts 27°
2026-04-28 15:58 50.32487 -115.00447 17363 ft 374 kts 28°
2026-04-28 15:58 50.34750 -114.98422 16986 ft 371 kts 28°
2026-04-28 15:58 50.36995 -114.96409 16597 ft 368 kts 29°
2026-04-28 15:59 50.39214 -114.94414 16199 ft 366 kts 29°
2026-04-28 15:59 50.41438 -114.92409 15793 ft 365 kts 29°
2026-04-28 15:59 50.43651 -114.90413 15389 ft 363 kts 30°
2026-04-28 15:59 50.45852 -114.88426 14986 ft 362 kts 30°
2026-04-28 16:00 50.48057 -114.86435 14586 ft 360 kts 30°
2026-04-28 16:00 50.50264 -114.84441 14189 ft 359 kts 30°
2026-04-28 16:00 50.52428 -114.82485 13802 ft 357 kts 30°
2026-04-28 16:00 50.54623 -114.80497 13411 ft 356 kts 30°
2026-04-28 16:01 50.56741 -114.78577 13227 ft 346 kts 30°
2026-04-28 16:01 50.58794 -114.76713 13222 ft 330 kts 30°
2026-04-28 16:01 50.60772 -114.74915 13204 ft 317 kts 30°
2026-04-28 16:01 50.62634 -114.73222 13176 ft 303 kts 30°
2026-04-28 16:02 50.64442 -114.71574 13142 ft 289 kts 30°
2026-04-28 16:02 50.66140 -114.70026 13106 ft 276 kts 30°
2026-04-28 16:02 50.67803 -114.68508 13074 ft 273 kts 30°
2026-04-28 16:02 50.69470 -114.66978 13041 ft 272 kts 32°
2026-04-28 16:03 50.71028 -114.65222 13010 ft 272 kts 40°
2026-04-28 16:03 50.72417 -114.63169 12987 ft 273 kts 45°
2026-04-28 16:03 50.73752 -114.61008 12658 ft 274 kts 45°
2026-04-28 16:03 50.75072 -114.58839 12337 ft 272 kts 46°
2026-04-28 16:04 50.76412 -114.56638 12028 ft 270 kts 46°
2026-04-28 16:04 50.77734 -114.54469 11736 ft 268 kts 45°
2026-04-28 16:04 50.79030 -114.52345 11458 ft 265 kts 45°
2026-04-28 16:04 50.80325 -114.50222 11183 ft 263 kts 45°
2026-04-28 16:05 50.81626 -114.48184 10913 ft 260 kts 43°
2026-04-28 16:05 50.82926 -114.46210 10650 ft 258 kts 43°
2026-04-28 16:05 50.84224 -114.44244 10389 ft 255 kts 43°
2026-04-28 16:05 50.85495 -114.42316 10132 ft 253 kts 43°
2026-04-28 16:06 50.86762 -114.40389 9875 ft 251 kts 43°
2026-04-28 16:06 50.88023 -114.38467 9628 ft 248 kts 43°
2026-04-28 16:06 50.89267 -114.36570 9366 ft 245 kts 43°
2026-04-28 16:06 50.90516 -114.34660 8987 ft 247 kts 44°
2026-04-28 16:07 50.91505 -114.32394 8581 ft 252 kts 71°
2026-04-28 16:07 50.91682 -114.29635 8217 ft 256 kts 90°
2026-04-28 16:07 50.90969 -114.24111 7444 ft 263 kts 126°
2026-04-28 16:08 50.89735 -114.21993 7093 ft 265 kts 136°
2026-04-28 16:08 50.88232 -114.20272 6717 ft 266 kts 150°
2026-04-28 16:08 50.86606 -114.18926 6526 ft 259 kts 153°
2026-04-28 16:09 50.83517 -114.16540 6520 ft 236 kts 149°
2026-04-28 16:09 50.82383 -114.14774 6494 ft 220 kts 122°
2026-04-28 16:09 50.81694 -114.12669 6504 ft 211 kts 106°
2026-04-28 16:10 50.81808 -114.08128 6513 ft 207 kts 65°
2026-04-28 16:10 50.82538 -114.06149 6526 ft 207 kts 56°
2026-04-28 16:10 50.84748 -114.03338 6522 ft 207 kts 23°
2026-04-28 16:11 50.87513 -114.02221 6515 ft 207 kts
2026-04-28 16:11 50.90407 -114.02123 6513 ft 206 kts 359°
2026-04-28 16:12 50.93289 -114.02131 6505 ft 204 kts 360°
2026-04-28 16:12 50.94677 -114.02132 6430 ft 195 kts 359°
2026-04-28 16:13 50.97346 -114.02131 5919 ft 189 kts 359°
2026-04-28 16:13 50.98639 -114.02132 5665 ft 181 kts
2026-04-28 16:13 51.00999 -114.02132 5195 ft 162 kts 360°
2026-04-28 16:14 51.03258 -114.02097 4917 ft 164 kts 356°
2026-04-28 16:14 51.05560 -114.02125 4363 ft 161 kts 358°
2026-04-28 16:15 51.07943 -114.02148 3958 ft 179 kts 358°
2026-04-28 16:15 51.09173 -114.02147 3718 ft 174 kts 359°
2026-04-28 16:15 51.10342 -114.02139 3558 ft 160 kts 359°
2026-04-28 16:16 51.11831 -114.02133 3561 ft 50 kts
2026-04-28 16:16 51.12042 -114.02129 3561 ft 25 kts
2026-04-28 16:17 51.12551 -114.02132 3561 ft 21 kts 356°
2026-04-28 16:17 51.12603 -114.02234 3561 ft 12 kts 268°
2026-04-28 16:17 51.12590 -114.02378 3560 ft 13 kts 230°
2026-04-28 16:17 51.12497 -114.02415 3560 ft 14 kts 180°
2026-04-28 16:18 51.12393 -114.02414 3560 ft 15 kts 180°
2026-04-28 16:18 51.12284 -114.02415 3560 ft 15 kts 181°
2026-04-28 16:18 51.12171 -114.02413 3560 ft 16 kts 180°
2026-04-28 16:18 51.12055 -114.02415 3560 ft 16 kts 180°
2026-04-28 16:19 51.11941 -114.02416 3561 ft 12 kts 180°
2026-04-28 16:19 51.11896 -114.02492 3561 ft 11 kts 282°
2026-04-28 16:19 51.11941 -114.02607 3559 ft 8 kts 309°
2026-04-28 16:19 51.11944 -114.02666 3558 ft 6 kts 236°
2026-04-28 16:20 51.11923 -114.02705 3557 ft 0 kts 227°
2026-04-28 16:20 51.11923 -114.02707 3557 ft 1 kts 227°
2026-04-28 16:20 51.11917 -114.02715 3556 ft 0 kts 225°